TimeEDT,TemperatureF,Dew PointF,Humidity,Sea Level PressureIn,VisibilityMPH,Wind Direction,Wind SpeedMPH,Gust SpeedMPH,PrecipitationIn,Events,Conditions,WindDirDegrees,DateUTC
12:15 AM,57.2,55.4,94,29.86,10.0,Calm,Calm,-,N/A,,Mostly Cloudy,0,2013-09-03 04:15:00
12:35 AM,57.2,55.4,94,29.86,10.0,Calm,Calm,-,N/A,,Mostly Cloudy,0,2013-09-03 04:35:00
12:55 AM,57.2,55.4,94,29.86,10.0,Calm,Calm,-,N/A,,Overcast,0,2013-09-03 04:55:00
1:15 AM,57.2,55.4,94,29.86,10.0,Calm,Calm,-,N/A,,Overcast,0,2013-09-03 05:15:00
1:35 AM,55.4,53.6,94,29.85,10.0,Calm,Calm,-,N/A,,Mostly Cloudy,0,2013-09-03 05:35:00
1:55 AM,55.4,53.6,94,29.85,10.0,Calm,Calm,-,N/A,,Scattered Clouds,0,2013-09-03 05:55:00
2:15 AM,53.6,53.6,100,29.85,10.0,Calm,Calm,-,N/A,,Mostly Cloudy,0,2013-09-03 06:15:00
2:35 AM,53.6,53.6,100,29.85,10.0,Calm,Calm,-,N/A,,Overcast,0,2013-09-03 06:35:00
2:55 AM,53.6,53.6,100,29.85,10.0,Calm,Calm,-,N/A,,Mostly Cloudy,0,2013-09-03 06:55:00
3:15 AM,55.4,53.6,94,29.85,10.0,Calm,Calm,-,N/A,,Overcast,0,2013-09-03 07:15:00
3:35 AM,55.4,53.6,94,29.85,10.0,Calm,Calm,-,N/A,,Overcast,0,2013-09-03 07:35:00
3:55 AM,55.4,53.6,94,29.85,10.0,SW,3.5,-,N/A,,Overcast,230,2013-09-03 07:55:00
4:15 AM,55.4,53.6,94,29.85,10.0,SW,3.5,-,N/A,,Overcast,220,2013-09-03 08:15:00
4:35 AM,55.4,53.6,94,29.85,10.0,Calm,Calm,-,N/A,,Overcast,0,2013-09-03 08:35:00
4:55 AM,55.4,53.6,94,29.85,10.0,Calm,Calm,-,N/A,,Overcast,0,2013-09-03 08:55:00
5:15 AM,55.4,53.6,94,29.85,10.0,WSW,3.5,-,N/A,,Overcast,250,2013-09-03 09:15:00
5:35 AM,55.4,53.6,94,29.86,10.0,Calm,Calm,-,N/A,,Overcast,0,2013-09-03 09:35:00
5:55 AM,55.4,53.6,94,29.86,10.0,WSW,3.5,-,N/A,,Overcast,240,2013-09-03 09:55:00
6:15 AM,55.4,53.6,94,29.87,10.0,West,4.6,-,N/A,,Overcast,260,2013-09-03 10:15:00
6:35 AM,55.4,53.6,94,29.87,10.0,West,3.5,-,N/A,,Overcast,270,2013-09-03 10:35:00
6:55 AM,55.4,53.6,94,29.88,10.0,West,3.5,-,N/A,,Overcast,260,2013-09-03 10:55:00
7:15 AM,55.4,51.8,88,29.88,10.0,West,5.8,17.3,N/A,,Overcast,260,2013-09-03 11:15:00
7:35 AM,55.4,51.8,88,29.88,10.0,WSW,3.5,-,N/A,,Overcast,250,2013-09-03 11:35:00
7:55 AM,55.4,53.6,94,29.88,10.0,WSW,5.8,-,N/A,,Overcast,250,2013-09-03 11:55:00
8:15 AM,55.4,51.8,88,29.89,10.0,West,5.8,-,N/A,,Overcast,260,2013-09-03 12:15:00
8:35 AM,55.4,51.8,88,29.89,7.0,West,6.9,18.4,N/A,,Overcast,270,2013-09-03 12:35:00
8:55 AM,55.4,51.8,88,29.90,10.0,West,3.5,-,N/A,,Overcast,260,2013-09-03 12:55:00
9:15 AM,55.4,51.8,88,29.90,10.0,West,4.6,-,N/A,,Overcast,280,2013-09-03 13:15:00
9:35 AM,53.6,53.6,100,29.91,7.0,West,5.8,-,N/A,,Overcast,280,2013-09-03 13:35:00
9:55 AM,55.4,53.6,94,29.91,10.0,Calm,Calm,-,N/A,,Overcast,0,2013-09-03 13:55:00
10:15 AM,57.2,53.6,88,29.91,10.0,West,5.8,-,N/A,,Overcast,270,2013-09-03 14:15:00
10:35 AM,55.4,53.6,94,29.92,5.0,NW,9.2,16.1,N/A,Rain,Light Rain,310,2013-09-03 14:35:00
10:55 AM,57.2,53.6,88,29.92,10.0,WNW,3.5,-,N/A,,Overcast,300,2013-09-03 14:55:00
11:15 AM,55.4,53.6,94,29.92,4.0,WNW,5.8,-,N/A,Rain,Light Rain,300,2013-09-03 15:15:00
11:35 AM,55.4,53.6,94,29.92,5.0,West,3.5,-,N/A,,Light Drizzle,270,2013-09-03 15:35:00
11:55 AM,57.2,53.6,88,29.92,7.0,WNW,6.9,-,N/A,,Overcast,290,2013-09-03 15:55:00
12:15 PM,59.0,53.6,82,29.92,10.0,West,9.2,16.1,N/A,,Overcast,280,2013-09-03 16:15:00
12:35 PM,59.0,53.6,82,29.92,10.0,WNW,5.8,-,N/A,,Overcast,290,2013-09-03 16:35:00
12:55 PM,60.8,53.6,77,29.92,10.0,West,4.6,-,N/A,,Overcast,280,2013-09-03 16:55:00
1:15 PM,60.8,53.6,77,29.92,10.0,WNW,10.4,17.3,N/A,,Overcast,300,2013-09-03 17:15:00
1:35 PM,60.8,51.8,72,29.92,10.0,WNW,9.2,20.7,N/A,,Overcast,290,2013-09-03 17:35:00
1:55 PM,59.0,51.8,77,29.93,10.0,WNW,5.8,-,N/A,,Overcast,290,2013-09-03 17:55:00
2:15 PM,59.0,53.6,82,29.92,10.0,WNW,9.2,19.6,N/A,,Overcast,300,2013-09-03 18:15:00
2:35 PM,60.8,53.6,77,29.92,10.0,WNW,6.9,-,N/A,,Overcast,290,2013-09-03 18:35:00
2:55 PM,59.0,55.4,88,29.92,7.0,WNW,4.6,-,N/A,Rain,Light Rain,290,2013-09-03 18:55:00
3:15 PM,59.0,55.4,88,29.93,5.0,WNW,8.1,-,N/A,Rain,Rain,300,2013-09-03 19:15:00
3:35 PM,59.0,55.4,88,29.93,10.0,WNW,9.2,-,N/A,,Overcast,290,2013-09-03 19:35:00
3:55 PM,59.0,53.6,82,29.93,10.0,WNW,10.4,17.3,N/A,,Overcast,300,2013-09-03 19:55:00
4:15 PM,59.0,55.4,88,29.94,7.0,WNW,8.1,-,N/A,Rain,Light Rain,290,2013-09-03 20:15:00
4:35 PM,59.0,55.4,88,29.94,7.0,WNW,3.5,-,N/A,,Overcast,300,2013-09-03 20:35:00
4:55 PM,57.2,55.4,94,29.94,3.0,WNW,5.8,-,N/A,Rain,Rain,290,2013-09-03 20:55:00
5:15 PM,57.2,55.4,94,29.94,10.0,West,4.6,-,N/A,,Overcast,280,2013-09-03 21:15:00
5:35 PM,57.2,53.6,88,29.94,10.0,Calm,Calm,-,N/A,,Overcast,0,2013-09-03 21:35:00
5:55 PM,55.4,55.4,100,29.95,5.0,WNW,3.5,-,N/A,Rain,Rain,290,2013-09-03 21:55:00
6:15 PM,55.4,55.4,100,29.95,7.0,West,5.8,-,N/A,,Light Drizzle,260,2013-09-03 22:15:00
6:35 PM,55.4,55.4,100,29.95,7.0,West,4.6,-,N/A,,Overcast,280,2013-09-03 22:35:00
6:55 PM,55.4,55.4,100,29.95,5.0,West,3.5,-,N/A,,Drizzle,280,2013-09-03 22:55:00
7:15 PM,55.4,55.4,100,29.96,10.0,West,4.6,-,N/A,,Overcast,270,2013-09-03 23:15:00
7:35 PM,55.4,55.4,100,29.96,10.0,WNW,3.5,-,N/A,,Overcast,290,2013-09-03 23:35:00
7:55 PM,55.4,53.6,94,29.96,10.0,West,4.6,-,N/A,,Overcast,280,2013-09-03 23:55:00
8:15 PM,55.4,53.6,94,29.97,10.0,West,4.6,-,N/A,,Overcast,280,2013-09-04 00:15:00
8:35 PM,55.4,53.6,94,29.98,10.0,WNW,3.5,-,N/A,,Overcast,290,2013-09-04 00:35:00
8:55 PM,55.4,53.6,94,29.99,10.0,West,3.5,-,N/A,,Overcast,280,2013-09-04 00:55:00
9:15 PM,55.4,55.4,100,29.99,10.0,WNW,5.8,-,N/A,,Overcast,290,2013-09-04 01:15:00
9:35 PM,55.4,53.6,94,29.99,10.0,WNW,5.8,-,N/A,,Overcast,300,2013-09-04 01:35:00
9:55 PM,55.4,53.6,94,30.00,10.0,WNW,5.8,-,N/A,,Mostly Cloudy,290,2013-09-04 01:55:00
10:15 PM,55.4,53.6,94,30.00,10.0,Calm,Calm,-,N/A,,Mostly Cloudy,0,2013-09-04 02:15:00
10:35 PM,55.4,53.6,94,30.00,10.0,West,3.5,-,N/A,,Overcast,280,2013-09-04 02:35:00
10:55 PM,53.6,53.6,100,30.01,10.0,West,4.6,-,N/A,,Mostly Cloudy,280,2013-09-04 02:55:00
11:15 PM,53.6,53.6,100,30.01,10.0,WNW,5.8,-,N/A,,Scattered Clouds,290,2013-09-04 03:15:00
11:35 PM,53.6,53.6,100,30.01,10.0,WNW,5.8,-,N/A,,Clear,290,2013-09-04 03:35:00
11:55 PM,53.6,53.6,100,30.02,10.0,West,5.8,-,N/A,,Clear,280,2013-09-04 03:55:00